Time,TemperatureF,DewpointF,PressureIn,WindDirection,WindDirectionDegrees,WindSpeedMPH,WindSpeedGustMPH,Humidity,HourlyPrecipIn,Conditions,Clouds,dailyrainin,SoftwareType,DateUTC
2013-02-20 00:00:00,64.3,61.6,30.01,SSE,153,0.0,4.0,91,0.00,,,0.00,Wunderground v.1.15,2013-02-20 05:00:00,
2013-02-20 00:05:00,64.3,61.6,30.01,SSE,153,0.0,4.0,91,0.00,,,0.00,Wunderground v.1.15,2013-02-20 05:05:00,
2013-02-20 00:10:00,64.3,61.9,30.01,SSE,152,0.0,0.0,92,0.00,,,0.00,Wunderground v.1.15,2013-02-20 05:10:00,
2013-02-20 00:15:00,64.2,61.8,30.01,SSE,153,0.0,0.0,92,0.00,,,0.00,Wunderground v.1.15,2013-02-20 05:15:00,
2013-02-20 00:20:00,64.2,61.8,30.01,SSE,153,0.0,0.0,92,0.00,,,0.00,Wunderground v.1.15,2013-02-20 05:20:00,
2013-02-20 00:25:00,64.2,61.8,30.01,SSE,152,0.0,0.0,92,0.00,,,0.00,Wunderground v.1.15,2013-02-20 05:25:00,
2013-02-20 00:35:00,64.0,61.6,30.02,SSE,153,0.0,0.0,92,0.00,,,0.00,Wunderground v.1.15,2013-02-20 05:35:00,
2013-02-20 00:40:00,64.0,61.6,30.02,SSE,153,0.0,0.0,92,0.00,,,0.00,Wunderground v.1.15,2013-02-20 05:40:00,
2013-02-20 00:50:00,64.0,61.9,30.01,SSE,152,0.0,0.0,93,0.00,,,0.00,Wunderground v.1.15,2013-02-20 05:50:00,
2013-02-20 00:55:00,63.9,61.8,30.01,SSE,153,0.0,0.0,93,0.00,,,0.00,Wunderground v.1.15,2013-02-20 05:55:00,
2013-02-20 01:05:00,63.7,61.6,30.01,SSE,153,0.0,4.0,93,0.00,,,0.00,Wunderground v.1.15,2013-02-20 06:05:00,
2013-02-20 01:15:00,63.7,61.9,30.01,SSE,152,0.0,4.0,94,0.00,,,0.00,Wunderground v.1.15,2013-02-20 06:15:00,
2013-02-20 01:25:00,63.7,61.9,30.01,SSE,152,0.0,4.0,94,0.00,,,0.00,Wunderground v.1.15,2013-02-20 06:25:00,
2013-02-20 01:30:00,63.7,61.9,30.01,SSE,153,0.0,4.0,94,0.00,,,0.00,Wunderground v.1.15,2013-02-20 06:30:00,
2013-02-20 01:35:00,63.5,61.7,30.01,SSE,153,0.0,4.0,94,0.00,,,0.00,Wunderground v.1.15,2013-02-20 06:35:00,
2013-02-20 01:45:00,63.9,62.1,30.00,South,178,1.0,4.0,94,0.00,,,0.00,Wunderground v.1.15,2013-02-20 06:45:00,
2013-02-20 01:50:00,63.7,61.9,30.00,South,182,0.0,4.0,94,0.00,,,0.00,Wunderground v.1.15,2013-02-20 06:50:00,
2013-02-20 02:00:00,63.9,62.4,30.00,SSW,192,0.0,4.0,95,0.00,,,0.00,Wunderground v.1.15,2013-02-20 07:00:00,
2013-02-20 02:10:00,64.0,62.5,30.00,SSW,192,0.0,4.0,95,0.00,,,0.00,Wunderground v.1.15,2013-02-20 07:10:00,
2013-02-20 02:15:00,64.0,62.5,30.00,SSW,193,0.0,4.0,95,0.00,,,0.00,Wunderground v.1.15,2013-02-20 07:15:00,
2013-02-20 02:25:00,64.2,62.7,30.00,SSW,193,0.0,4.0,95,0.00,,,0.00,Wunderground v.1.15,2013-02-20 07:25:00,
2013-02-20 02:30:00,64.0,62.5,30.00,SSW,193,0.0,4.0,95,0.00,,,0.00,Wunderground v.1.15,2013-02-20 07:30:00,
2013-02-20 02:40:00,64.0,62.5,30.00,SSW,193,0.0,4.0,95,0.00,,,0.00,Wunderground v.1.15,2013-02-20 07:40:00,
2013-02-20 02:45:00,64.0,62.8,30.00,SSW,193,0.0,4.0,96,0.00,,,0.00,Wunderground v.1.15,2013-02-20 07:45:00,
2013-02-20 02:55:00,63.9,62.7,30.00,SSW,193,0.0,4.0,96,0.00,,,0.00,Wunderground v.1.15,2013-02-20 07:55:00,
2013-02-20 03:00:00,63.9,62.7,29.99,SSW,193,0.0,4.0,96,0.00,,,0.00,Wunderground v.1.15,2013-02-20 08:00:00,
2013-02-20 03:10:00,63.5,62.3,29.99,SSW,193,0.0,0.0,96,0.00,,,0.00,Wunderground v.1.15,2013-02-20 08:10:00,
2013-02-20 03:15:00,63.4,62.2,29.99,SSW,193,0.0,0.0,96,0.00,,,0.00,Wunderground v.1.15,2013-02-20 08:15:00,
2013-02-20 03:25:00,62.9,61.7,29.99,SSW,193,0.0,0.0,96,0.00,,,0.00,Wunderground v.1.15,2013-02-20 08:25:00,
2013-02-20 03:35:00,62.9,61.7,29.99,SSW,193,0.0,0.0,96,0.00,,,0.00,Wunderground v.1.15,2013-02-20 08:35:00,
2013-02-20 03:40:00,62.7,61.5,29.99,SSW,193,0.0,0.0,96,0.00,,,0.00,Wunderground v.1.15,2013-02-20 08:40:00,
2013-02-20 03:45:00,62.4,61.2,29.99,SSW,193,0.0,0.0,96,0.00,,,0.00,Wunderground v.1.15,2013-02-20 08:45:00,
2013-02-20 03:55:00,62.0,60.6,29.99,SSW,193,0.0,0.0,95,0.00,,,0.00,Wunderground v.1.15,2013-02-20 08:55:00,
2013-02-20 04:05:00,61.3,60.2,29.99,SSW,193,0.0,2.0,96,0.00,,,0.00,Wunderground v.1.15,2013-02-20 09:05:00,
2013-02-20 04:10:00,61.3,60.2,29.99,SSW,192,0.0,2.0,96,0.00,,,0.00,Wunderground v.1.15,2013-02-20 09:10:00,
2013-02-20 04:15:00,61.3,60.2,29.98,South,179,0.0,3.0,96,0.00,,,0.00,Wunderground v.1.15,2013-02-20 09:15:00,
2013-02-20 04:25:00,61.5,60.6,29.98,SE,143,0.0,2.0,97,0.00,,,0.00,Wunderground v.1.15,2013-02-20 09:25:00,
2013-02-20 04:30:00,61.3,60.2,29.98,SE,142,0.0,2.0,96,0.00,,,0.00,Wunderground v.1.15,2013-02-20 09:30:00,
2013-02-20 04:40:00,62.9,62.3,29.98,WNW,297,8.0,10.0,98,0.00,,,0.00,Wunderground v.1.15,2013-02-20 09:40:00,
2013-02-20 04:50:00,64.3,63.7,30.00,NW,314,6.0,6.0,98,0.00,,,0.00,Wunderground v.1.15,2013-02-20 09:50:00,
2013-02-20 04:55:00,64.3,63.4,30.00,NW,316,5.0,6.0,97,0.00,,,0.00,Wunderground v.1.15,2013-02-20 09:55:00,
2013-02-20 05:00:00,64.2,63.3,30.00,NW,316,2.0,2.0,97,0.00,,,0.00,Wunderground v.1.15,2013-02-20 10:00:00,
2013-02-20 05:10:00,63.9,63.0,30.00,NW,316,0.0,2.0,97,0.00,,,0.00,Wunderground v.1.15,2013-02-20 10:10:00,
2013-02-20 05:20:00,63.9,63.0,29.99,NW,316,0.0,2.0,97,0.00,,,0.00,Wunderground v.1.15,2013-02-20 10:20:00,
2013-02-20 05:25:00,63.5,62.6,29.99,NW,316,0.0,2.0,97,0.00,,,0.00,Wunderground v.1.15,2013-02-20 10:25:00,
2013-02-20 05:30:00,63.4,62.5,30.00,NW,316,0.0,2.0,97,0.00,,,0.00,Wunderground v.1.15,2013-02-20 10:30:00,
2013-02-20 05:40:00,62.9,62.0,30.00,NW,316,0.0,2.0,97,0.00,,,0.00,Wunderground v.1.15,2013-02-20 10:40:00,
2013-02-20 05:45:00,62.7,61.8,30.00,NW,316,0.0,2.0,97,0.00,,,0.00,Wunderground v.1.15,2013-02-20 10:45:00,
2013-02-20 05:55:00,62.3,61.4,30.00,NW,316,0.0,2.0,97,0.00,,,0.00,Wunderground v.1.15,2013-02-20 10:55:00,
2013-02-20 06:05:00,61.8,60.9,30.00,NW,316,0.0,2.0,97,0.00,,,0.00,Wunderground v.1.15,2013-02-20 11:05:00,
2013-02-20 06:10:00,61.8,61.2,30.00,NW,316,0.0,0.0,98,0.00,,,0.00,Wunderground v.1.15,2013-02-20 11:10:00,
2013-02-20 06:20:00,61.8,61.2,30.01,NW,316,0.0,0.0,98,0.00,,,0.00,Wunderground v.1.15,2013-02-20 11:20:00,
2013-02-20 06:25:00,61.6,61.0,30.01,NW,316,0.0,0.0,98,0.00,,,0.00,Wunderground v.1.15,2013-02-20 11:25:00,
2013-02-20 06:35:00,61.6,61.0,30.01,NW,316,0.0,0.0,98,0.00,,,0.00,Wunderground v.1.15,2013-02-20 11:35:00,
2013-02-20 06:45:00,61.8,61.2,30.01,NW,316,0.0,0.0,98,0.00,,,0.00,Wunderground v.1.15,2013-02-20 11:45:00,
2013-02-20 06:50:00,62.0,61.4,30.01,NW,316,0.0,0.0,98,0.00,,,0.00,Wunderground v.1.15,2013-02-20 11:50:00,
2013-02-20 06:55:00,62.0,61.4,30.01,NW,316,0.0,0.0,98,0.00,,,0.00,Wunderground v.1.15,2013-02-20 11:55:00,
2013-02-20 07:05:00,62.1,61.5,30.02,NW,316,0.0,0.0,98,0.00,,,0.00,Wunderground v.1.15,2013-02-20 12:05:00,
2013-02-20 07:10:00,62.3,61.7,30.02,NW,316,0.0,0.0,98,0.00,,,0.00,Wunderground v.1.15,2013-02-20 12:10:00,
2013-02-20 07:20:00,62.4,61.8,30.02,NW,316,0.0,0.0,98,0.00,,,0.00,Wunderground v.1.15,2013-02-20 12:20:00,
2013-02-20 07:30:00,62.9,62.3,30.03,NW,316,0.0,0.0,98,0.00,,,0.00,Wunderground v.1.15,2013-02-20 12:30:00,
2013-02-20 07:35:00,62.9,62.3,30.03,NW,316,0.0,0.0,98,0.00,,,0.00,Wunderground v.1.15,2013-02-20 12:35:00,
2013-02-20 07:45:00,63.1,62.5,30.03,NW,316,0.0,0.0,98,0.00,,,0.00,Wunderground v.1.15,2013-02-20 12:45:00,
2013-02-20 07:50:00,63.2,62.6,30.03,NW,316,0.0,0.0,98,0.00,,,0.00,Wunderground v.1.15,2013-02-20 12:50:00,
2013-02-20 08:00:00,63.4,62.8,30.03,North,358,1.0,1.0,98,0.00,,,0.00,Wunderground v.1.15,2013-02-20 13:00:00,
2013-02-20 08:05:00,63.5,62.9,30.03,NNW,338,1.0,1.0,98,0.00,,,0.00,Wunderground v.1.15,2013-02-20 13:05:00,
2013-02-20 08:15:00,63.9,63.3,30.04,NNW,335,2.0,5.0,98,0.00,,,0.00,Wunderground v.1.15,2013-02-20 13:15:00,
2013-02-20 08:20:00,63.9,63.3,30.04,North,354,2.0,2.0,98,0.00,,,0.00,Wunderground v.1.15,2013-02-20 13:20:00,
2013-02-20 08:30:00,64.0,63.4,30.04,North,4,2.0,2.0,98,0.00,,,0.00,Wunderground v.1.15,2013-02-20 13:30:00,
2013-02-20 08:35:00,64.2,63.6,30.04,NNE,31,2.0,9.0,98,0.00,,,0.00,Wunderground v.1.15,2013-02-20 13:35:00,
2013-02-20 08:45:00,64.2,63.6,30.04,NNE,29,5.0,5.0,98,0.00,,,0.00,Wunderground v.1.15,2013-02-20 13:45:00,
2013-02-20 08:50:00,64.2,63.6,30.04,North,11,3.0,9.0,98,0.00,,,0.00,Wunderground v.1.15,2013-02-20 13:50:00,
2013-02-20 09:00:00,64.3,63.7,30.03,ENE,68,4.0,4.0,98,0.00,,,0.00,Wunderground v.1.15,2013-02-20 14:00:00,
2013-02-20 09:05:00,64.5,63.9,30.03,NE,56,4.0,4.0,98,0.00,,,0.00,Wunderground v.1.15,2013-02-20 14:05:00,
2013-02-20 09:15:00,64.7,64.1,30.04,East,89,2.0,4.0,98,0.00,,,0.00,Wunderground v.1.15,2013-02-20 14:15:00,
2013-02-20 09:25:00,64.5,63.9,30.04,ENE,68,6.0,6.0,98,0.00,,,0.00,Wunderground v.1.15,2013-02-20 14:25:00,
2013-02-20 09:30:00,64.7,64.1,30.03,NE,55,5.0,9.0,98,0.00,,,0.00,Wunderground v.1.15,2013-02-20 14:30:00,
2013-02-20 09:40:00,65.0,64.4,30.03,NE,55,5.0,10.0,98,0.00,,,0.00,Wunderground v.1.15,2013-02-20 14:40:00,
2013-02-20 09:45:00,65.2,64.6,30.04,NE,34,6.0,10.0,98,0.00,,,0.00,Wunderground v.1.15,2013-02-20 14:45:00,
2013-02-20 09:55:00,65.3,64.4,30.04,ESE,108,7.0,7.0,97,0.00,,,0.00,Wunderground v.1.15,2013-02-20 14:55:00,
2013-02-20 10:00:00,65.3,64.4,30.04,North,4,7.0,7.0,97,0.00,,,0.00,Wunderground v.1.15,2013-02-20 15:00:00,
2013-02-20 10:05:00,65.6,64.7,30.04,NE,48,5.0,14.0,97,0.00,,,0.00,Wunderground v.1.15,2013-02-20 15:05:00,
2013-02-20 10:15:00,66.4,65.2,30.03,NNE,20,5.0,14.0,96,0.00,,,0.00,Wunderground v.1.15,2013-02-20 15:15:00,
2013-02-20 10:25:00,67.6,65.2,30.03,ENE,64,4.0,14.0,92,0.00,,,0.00,Wunderground v.1.15,2013-02-20 15:25:00,
2013-02-20 10:30:00,67.8,64.4,30.04,NNE,13,4.0,14.0,89,0.00,,,0.00,Wunderground v.1.15,2013-02-20 15:30:00,
2013-02-20 10:40:00,68.1,64.4,30.04,NE,38,4.0,4.0,88,0.00,,,0.00,Wunderground v.1.15,2013-02-20 15:40:00,
2013-02-20 10:45:00,68.3,64.3,30.04,ENE,62,2.0,14.0,87,0.00,,,0.00,Wunderground v.1.15,2013-02-20 15:45:00,
2013-02-20 10:55:00,68.4,63.4,30.04,NNE,17,2.0,14.0,84,0.00,,,0.00,Wunderground v.1.15,2013-02-20 15:55:00,
2013-02-20 11:00:00,68.9,63.5,30.04,ENE,58,1.0,1.0,83,0.00,,,0.00,Wunderground v.1.15,2013-02-20 16:00:00,
2013-02-20 11:10:00,69.9,63.8,30.04,NNE,13,2.0,14.0,81,0.00,,,0.00,Wunderground v.1.15,2013-02-20 16:10:00,
2013-02-20 11:15:00,70.8,64.0,30.04,North,11,1.0,14.0,79,0.00,,,0.00,Wunderground v.1.15,2013-02-20 16:15:00,
2013-02-20 11:25:00,71.6,63.3,30.04,ENE,60,1.0,6.0,75,0.00,,,0.00,Wunderground v.1.15,2013-02-20 16:25:00,
2013-02-20 11:30:00,71.6,62.9,30.03,ENE,60,2.0,2.0,74,0.00,,,0.00,Wunderground v.1.15,2013-02-20 16:30:00,
2013-02-20 11:40:00,71.5,62.8,30.03,SSE,155,0.0,14.0,74,0.00,,,0.00,Wunderground v.1.15,2013-02-20 16:40:00,
2013-02-20 11:45:00,72.3,63.2,30.03,ENE,76,0.0,14.0,73,0.00,,,0.00,Wunderground v.1.15,2013-02-20 16:45:00,
2013-02-20 11:55:00,72.8,62.4,30.03,ENE,77,1.0,14.0,70,0.00,,,0.00,Wunderground v.1.15,2013-02-20 16:55:00,
2013-02-20 12:05:00,73.2,62.8,30.01,ESE,114,2.0,6.0,70,0.00,,,0.00,Wunderground v.1.15,2013-02-20 17:05:00,
2013-02-20 12:10:00,73.2,62.8,30.01,East,101,2.0,2.0,70,0.00,,,0.00,Wunderground v.1.15,2013-02-20 17:10:00,
2013-02-20 12:20:00,74.2,63.4,29.99,SE,134,0.0,4.0,69,0.00,,,0.00,Wunderground v.1.15,2013-02-20 17:20:00,
2013-02-20 12:25:00,74.4,62.3,29.99,SSE,154,2.0,4.0,66,0.00,,,0.00,Wunderground v.1.15,2013-02-20 17:25:00,
2013-02-20 12:35:00,74.2,61.7,29.99,South,184,1.0,9.0,65,0.00,,,0.00,Wunderground v.1.15,2013-02-20 17:35:00,
2013-02-20 12:45:00,74.0,63.6,29.97,NW,321,2.0,2.0,70,0.00,,,0.00,Wunderground v.1.15,2013-02-20 17:45:00,
2013-02-20 12:50:00,73.7,63.7,29.97,NW,307,2.0,10.0,71,0.00,,,0.00,Wunderground v.1.15,2013-02-20 17:50:00,
2013-02-20 12:55:00,73.7,63.7,29.97,NW,322,4.0,12.0,71,0.00,,,0.00,Wunderground v.1.15,2013-02-20 17:55:00,
2013-02-20 13:05:00,72.7,63.5,29.97,NW,318,13.0,14.0,73,0.00,,,0.00,Wunderground v.1.15,2013-02-20 18:05:00,
2013-02-20 13:10:00,72.1,63.4,29.97,NNW,330,13.0,13.0,74,0.00,,,0.00,Wunderground v.1.15,2013-02-20 18:10:00,
2013-02-20 13:20:00,72.5,63.4,29.96,NW,326,12.0,15.0,73,0.00,,,0.00,Wunderground v.1.15,2013-02-20 18:20:00,
2013-02-20 13:25:00,72.7,63.5,29.96,NW,322,13.0,18.0,73,0.00,,,0.00,Wunderground v.1.15,2013-02-20 18:25:00,
2013-02-20 13:35:00,72.5,63.4,29.97,NW,324,15.0,16.0,73,0.00,,,0.00,Wunderground v.1.15,2013-02-20 18:35:00,
2013-02-20 13:45:00,72.7,63.1,29.97,NNW,335,14.0,19.0,72,0.00,,,0.00,Wunderground v.1.15,2013-02-20 18:45:00,
2013-02-20 13:50:00,72.1,63.0,29.97,North,0,15.0,15.0,73,0.00,,,0.00,Wunderground v.1.15,2013-02-20 18:50:00,
2013-02-20 14:00:00,71.8,62.7,29.96,NW,314,17.0,19.0,73,0.00,,,0.00,Wunderground v.1.15,2013-02-20 19:00:00,
2013-02-20 14:05:00,71.8,63.1,29.96,NNW,347,17.0,19.0,74,0.00,,,0.00,Wunderground v.1.15,2013-02-20 19:05:00,
2013-02-20 14:15:00,72.0,62.5,29.95,NW,314,15.0,17.0,72,0.00,,,0.00,Wunderground v.1.15,2013-02-20 19:15:00,
2013-02-20 14:20:00,72.0,62.9,29.95,NW,306,14.0,19.0,73,0.00,,,0.00,Wunderground v.1.15,2013-02-20 19:20:00,
2013-02-20 14:30:00,72.0,62.5,29.95,WNW,300,15.0,15.0,72,0.00,,,0.00,Wunderground v.1.15,2013-02-20 19:30:00,
2013-02-20 14:40:00,72.3,62.8,29.95,NW,315,13.0,17.0,72,0.00,,,0.00,Wunderground v.1.15,2013-02-20 19:40:00,
2013-02-20 14:45:00,72.3,62.4,29.95,NNW,338,13.0,17.0,71,0.00,,,0.00,Wunderground v.1.15,2013-02-20 19:45:00,
2013-02-20 14:50:00,72.7,62.8,29.95,WNW,300,12.0,12.0,71,0.00,,,0.00,Wunderground v.1.15,2013-02-20 19:50:00,
2013-02-20 15:00:00,73.3,62.9,29.94,WNW,303,12.0,12.0,70,0.00,,,0.00,Wunderground v.1.15,2013-02-20 20:00:00,
2013-02-20 15:10:00,73.7,63.3,29.94,NNW,335,11.0,15.0,70,0.00,,,0.00,Wunderground v.1.15,2013-02-20 20:10:00,
2013-02-20 15:20:00,73.5,62.7,29.94,WNW,289,13.0,14.0,69,0.00,,,0.00,Wunderground v.1.15,2013-02-20 20:20:00,
2013-02-20 15:25:00,73.2,62.4,29.94,WNW,293,12.0,14.0,69,0.00,,,0.00,Wunderground v.1.15,2013-02-20 20:25:00,
2013-02-20 15:35:00,73.5,63.1,29.93,West,280,11.0,13.0,70,0.00,,,0.00,Wunderground v.1.15,2013-02-20 20:35:00,
2013-02-20 15:40:00,73.5,63.1,29.93,NW,318,11.0,11.0,70,0.00,,,0.00,Wunderground v.1.15,2013-02-20 20:40:00,
2013-02-20 15:50:00,72.7,63.1,29.93,NW,320,14.0,18.0,72,0.00,,,0.00,Wunderground v.1.15,2013-02-20 20:50:00,
2013-02-20 16:00:00,72.1,63.0,29.94,NW,310,15.0,19.0,73,0.00,,,0.00,Wunderground v.1.15,2013-02-20 21:00:00,
2013-02-20 16:05:00,72.1,63.0,29.94,WNW,292,16.0,20.0,73,0.00,,,0.00,Wunderground v.1.15,2013-02-20 21:05:00,
2013-02-20 16:15:00,72.8,63.6,29.95,WNW,285,14.0,23.0,73,0.00,,,0.00,Wunderground v.1.15,2013-02-20 21:15:00,
2013-02-20 16:20:00,72.5,63.7,29.95,WNW,294,17.0,17.0,74,0.00,,,0.00,Wunderground v.1.15,2013-02-20 21:20:00,
2013-02-20 16:30:00,71.6,63.6,29.96,NW,308,17.0,21.0,76,0.00,,,0.00,Wunderground v.1.15,2013-02-20 21:30:00,
2013-02-20 16:40:00,70.4,63.2,29.96,WNW,292,18.0,18.0,78,0.00,,,0.00,Wunderground v.1.15,2013-02-20 21:40:00,
2013-02-20 16:45:00,70.3,63.5,29.97,NW,308,15.0,20.0,79,0.00,,,0.00,Wunderground v.1.15,2013-02-20 21:45:00,
2013-02-20 16:55:00,69.9,63.4,29.97,NW,311,17.0,20.0,80,0.00,,,0.00,Wunderground v.1.15,2013-02-20 21:55:00,
2013-02-20 17:05:00,69.6,63.2,29.97,WNW,303,15.0,20.0,80,0.00,,,0.00,Wunderground v.1.15,2013-02-20 22:05:00,
2013-02-20 17:10:00,69.8,63.3,29.97,NW,314,15.0,15.0,80,0.00,,,0.00,Wunderground v.1.15,2013-02-20 22:10:00,
2013-02-20 17:20:00,69.4,63.0,29.97,West,279,14.0,14.0,80,0.00,,,0.00,Wunderground v.1.15,2013-02-20 22:20:00,
2013-02-20 17:25:00,69.3,63.2,29.97,NW,326,12.0,15.0,81,0.00,,,0.00,Wunderground v.1.15,2013-02-20 22:25:00,
2013-02-20 17:35:00,68.8,62.7,29.97,NW,309,13.0,20.0,81,0.00,,,0.00,Wunderground v.1.15,2013-02-20 22:35:00,
2013-02-20 17:45:00,67.9,62.9,29.97,NW,308,14.0,17.0,84,0.00,,,0.00,Wunderground v.1.15,2013-02-20 22:45:00,
2013-02-20 17:55:00,67.3,62.3,29.97,NW,304,13.0,17.0,84,0.00,,,0.00,Wunderground v.1.15,2013-02-20 22:55:00,
2013-02-20 18:00:00,66.9,61.9,29.99,NW,308,12.0,20.0,84,0.00,,,0.00,Wunderground v.1.15,2013-02-20 23:00:00,
2013-02-20 18:10:00,66.4,61.8,29.99,NW,319,13.0,13.0,85,0.00,,,0.00,Wunderground v.1.15,2013-02-20 23:10:00,
2013-02-20 18:20:00,66.0,61.4,29.98,NW,309,10.0,10.0,85,0.00,,,0.00,Wunderground v.1.15,2013-02-20 23:20:00,
2013-02-20 18:25:00,65.8,61.2,29.98,WNW,299,9.0,10.0,85,0.00,,,0.00,Wunderground v.1.15,2013-02-20 23:25:00,
2013-02-20 18:35:00,65.6,61.0,29.97,WNW,293,8.0,9.0,85,0.00,,,0.00,Wunderground v.1.15,2013-02-20 23:35:00,
2013-02-20 18:45:00,65.5,61.2,29.97,NW,309,8.0,8.0,86,0.00,,,0.00,Wunderground v.1.15,2013-02-20 23:45:00,
2013-02-20 18:50:00,65.6,61.3,29.97,NW,316,7.0,7.0,86,0.00,,,0.00,Wunderground v.1.15,2013-02-20 23:50:00,
2013-02-20 19:00:00,65.6,61.3,29.97,NW,309,6.0,6.0,86,0.00,,,0.00,Wunderground v.1.15,2013-02-21 00:00:00,
2013-02-20 19:10:00,65.6,61.3,29.97,NNW,327,7.0,19.0,86,0.00,,,0.00,Wunderground v.1.15,2013-02-21 00:10:00,
2013-02-20 19:15:00,65.6,61.6,29.97,NNW,330,9.0,19.0,87,0.00,,,0.00,Wunderground v.1.15,2013-02-21 00:15:00,
2013-02-20 19:25:00,65.5,61.5,29.97,NW,321,9.0,19.0,87,0.00,,,0.00,Wunderground v.1.15,2013-02-21 00:25:00,
2013-02-20 19:30:00,65.5,61.5,29.98,NW,317,9.0,19.0,87,0.00,,,0.00,Wunderground v.1.15,2013-02-21 00:30:00,
2013-02-20 19:40:00,65.5,61.5,29.98,NNW,335,8.0,8.0,87,0.00,,,0.00,Wunderground v.1.15,2013-02-21 00:40:00,
2013-02-20 19:50:00,65.6,61.3,29.98,North,356,7.0,7.0,86,0.00,,,0.00,Wunderground v.1.15,2013-02-21 00:50:00,
2013-02-20 20:00:00,65.6,61.6,29.99,NNW,339,7.0,19.0,87,0.00,,,0.00,Wunderground v.1.15,2013-02-21 01:00:00,
2013-02-20 20:05:00,65.5,61.5,29.99,NNW,340,7.0,19.0,87,0.00,,,0.00,Wunderground v.1.15,2013-02-21 01:05:00,
2013-02-20 20:15:00,65.5,61.2,30.00,North,358,6.0,19.0,86,0.00,,,0.00,Wunderground v.1.15,2013-02-21 01:15:00,
2013-02-20 20:25:00,65.5,61.2,30.00,NNW,327,5.0,9.0,86,0.00,,,0.00,Wunderground v.1.15,2013-02-21 01:25:00,
2013-02-20 20:30:00,65.5,60.9,29.99,North,354,5.0,19.0,85,0.00,,,0.00,Wunderground v.1.15,2013-02-21 01:30:00,
2013-02-20 20:40:00,65.5,60.9,29.99,NW,313,2.0,2.0,85,0.00,,,0.00,Wunderground v.1.15,2013-02-21 01:40:00,
2013-02-20 20:50:00,65.3,60.3,30.00,North,352,2.0,2.0,84,0.00,,,0.00,Wunderground v.1.15,2013-02-21 01:50:00,
2013-02-20 20:55:00,65.2,60.2,30.00,North,7,1.0,19.0,84,0.00,,,0.00,Wunderground v.1.15,2013-02-21 01:55:00,
2013-02-20 21:05:00,65.0,60.4,30.00,North,358,1.0,19.0,85,0.00,,,0.00,Wunderground v.1.15,2013-02-21 02:05:00,
2013-02-20 21:15:00,64.8,60.2,30.00,North,1,1.0,4.0,85,0.00,,,0.00,Wunderground v.1.15,2013-02-21 02:15:00,
2013-02-20 21:25:00,64.5,59.9,30.00,North,9,2.0,2.0,85,0.00,,,0.00,Wunderground v.1.15,2013-02-21 02:25:00,
2013-02-20 21:30:00,64.3,59.7,30.00,NNE,25,2.0,2.0,85,0.00,,,0.00,Wunderground v.1.15,2013-02-21 02:30:00,
2013-02-20 21:40:00,64.2,59.3,30.00,North,352,3.0,5.0,84,0.00,,,0.00,Wunderground v.1.15,2013-02-21 02:40:00,
2013-02-20 21:45:00,64.0,59.1,30.00,North,358,3.0,5.0,84,0.00,,,0.00,Wunderground v.1.15,2013-02-21 02:45:00,
2013-02-20 21:55:00,64.0,59.1,30.00,NNE,20,2.0,5.0,84,0.00,,,0.00,Wunderground v.1.15,2013-02-21 02:55:00,
2013-02-20 22:05:00,64.0,58.7,30.01,North,8,2.0,9.0,83,0.00,,,0.00,Wunderground v.1.15,2013-02-21 03:05:00,
2013-02-20 22:10:00,63.9,58.6,30.01,NNE,18,2.0,2.0,83,0.00,,,0.00,Wunderground v.1.15,2013-02-21 03:10:00,
2013-02-20 22:20:00,63.9,58.6,30.01,NNE,15,2.0,2.0,83,0.00,,,0.00,Wunderground v.1.15,2013-02-21 03:20:00,
2013-02-20 22:25:00,63.7,58.4,30.01,North,0,2.0,6.0,83,0.00,,,0.00,Wunderground v.1.15,2013-02-21 03:25:00,
2013-02-20 22:35:00,63.9,58.6,30.01,North,10,0.0,6.0,83,0.00,,,0.00,Wunderground v.1.15,2013-02-21 03:35:00,
2013-02-20 22:45:00,63.9,58.6,30.01,North,0,1.0,6.0,83,0.00,,,0.00,Wunderground v.1.15,2013-02-21 03:45:00,
2013-02-20 22:50:00,64.0,58.7,30.01,NNE,29,1.0,1.0,83,0.00,,,0.00,Wunderground v.1.15,2013-02-21 03:50:00,
2013-02-20 23:00:00,64.0,58.7,30.00,NE,34,0.0,6.0,83,0.00,,,0.00,Wunderground v.1.15,2013-02-21 04:00:00,
2013-02-20 23:10:00,63.7,58.4,30.00,NE,47,0.0,6.0,83,0.00,,,0.00,Wunderground v.1.15,2013-02-21 04:10:00,
2013-02-20 23:20:00,63.4,58.5,29.99,NE,46,0.0,6.0,84,0.00,,,0.00,Wunderground v.1.15,2013-02-21 04:20:00,
2013-02-20 23:25:00,63.2,58.3,29.99,NE,46,0.0,6.0,84,0.00,,,0.00,Wunderground v.1.15,2013-02-21 04:25:00,
2013-02-20 23:35:00,63.1,58.2,29.99,NNE,20,0.0,6.0,84,0.00,,,0.00,Wunderground v.1.15,2013-02-21 04:35:00,
2013-02-20 23:40:00,62.9,58.0,29.99,NNE,20,0.0,6.0,84,0.00,,,0.00,Wunderground v.1.15,2013-02-21 04:40:00,
2013-02-20 23:50:00,62.6,58.0,29.99,NNE,20,0.0,6.0,85,0.00,,,0.00,Wunderground v.1.15,2013-02-21 04:50:00,